QPF
0.00 0.01 0.03 0.03 0.02 0.02 0.02 0.01 0.03 0.05 0.04 0.04 0.04 0.02 0.02 0.01 0.01 0.02 0.01 0.00 0.00 0.01 0.01 0.01 0.01 0.01 0.01 0.01 0.01 0.01 0.02 0.01 0.01 0.01 0.01 0.01 0.02 0.02 0.02 0.02 0.02 0.02 0.02 0.02
0.02 0.01 0.02 0.03 0.03 0.01 0.01 0.01 0.02 0.04 0.03 0.02 0.02 0.01 0.01 0.01 0.01 0.01 0.01 0.01 0.01 0.01 0.02 0.02 0.02 0.02 0.02 0.02 0.01 0.01 0.01 0.01 0.01 0.01 0.01 0.02 0.02 0.02 0.02 0.02 0.03 0.03 0.03 0.03
0.02 0.02 0.01 0.01 0.01 0.01 0.01 0.00 0.01 0.02 0.03 0.02 0.02 0.02 0.01 0.01 0.02 0.02 0.01 0.01 0.01 0.01 0.02 0.02 0.03 0.02 0.02 0.02 0.02 0.01 0.01 0.01 0.01 0.01 0.02 0.02 0.02 0.03 0.04 0.04 0.04 0.04 0.03 0.03
0.02 0.04 0.05 0.04 0.04 0.01 0.01 0.01 0.01 0.02 0.02 0.02 0.03 0.03 0.03 0.02 0.03 0.02 0.02 0.01 0.01 0.02 0.02 0.02 0.03 0.03 0.03 0.03 0.03 0.03 0.03 0.03 0.02 0.02 0.03 0.03 0.04 0.04 0.05 0.06 0.05 0.04 0.03 0.04
0.03 0.05 0.06 0.05 0.05 0.02 0.02 0.02 0.02 0.02 0.03 0.03 0.04 0.05 0.05 0.03 0.02 0.02 0.02 0.02 0.02 0.02 0.03 0.03 0.04 0.04 0.04 0.04 0.04 0.04 0.04 0.04 0.04 0.04 0.05 0.04 0.04 0.04 0.06 0.06 0.06 0.06 0.06 0.06
0.03 0.05 0.07 0.03 0.02 0.01 0.02 0.02 0.01 0.01 0.02 0.02 0.03 0.05 0.05 0.03 0.03 0.02 0.02 0.03 0.02 0.02 0.04 0.04 0.05 0.06 0.06 0.06 0.06 0.05 0.04 0.04 0.03 0.04 0.04 0.05 0.04 0.05 0.06 0.06 0.05 0.05 0.06 0.06
0.03 0.05 0.06 0.03 0.01 0.01 0.03 0.04 0.02 0.02 0.02 0.01 0.02 0.03 0.02 0.01 0.02 0.02 0.01 0.02 0.02 0.02 0.03 0.04 0.06 0.08 0.07 0.05 0.05 0.04 0.04 0.04 0.02 0.02 0.03 0.03 0.04 0.04 0.04 0.05 0.05 0.05 0.05 0.05
0.03 0.04 0.06 0.03 0.02 0.03 0.03 0.02 0.01 0.01 0.01 0.02 0.01 0.02 0.03 0.02 0.03 0.02 0.02 0.02 0.03 0.03 0.04 0.04 0.06 0.10 0.09 0.06 0.05 0.05 0.04 0.04 0.03 0.03 0.03 0.02 0.03 0.03 0.03 0.03 0.03 0.04 0.05 0.05
0.04 0.04 0.04 0.03 0.03 0.03 0.01 0.01 0.01 0.01 0.01 0.02 0.01 0.01 0.02 0.03 0.03 0.02 0.02 0.02 0.02 0.02 0.03 0.04 0.05 0.11 0.11 0.08 0.06 0.06 0.05 0.05 0.05 0.04 0.04 0.04 0.04 0.04 0.04 0.05 0.04 0.04 0.04 0.05
0.02 0.02 0.02 0.02 0.01 0.01 0.01 0.00 0.00 0.01 0.01 0.02 0.02 0.01 0.01 0.02 0.02 0.03 0.02 0.02 0.02 0.02 0.02 0.03 0.04 0.05 0.07 0.07 0.06 0.06 0.05 0.07 0.07 0.06 0.05 0.05 0.06 0.05 0.06 0.05 0.06 0.05 0.05 0.04
0.02 0.02 0.01 0.02 0.02 0.01 0.00 0.00 0.01 0.02 0.01 0.02 0.02 0.01 0.01 0.01 0.02 0.03 0.03 0.02 0.02 0.02 0.03 0.03 0.02 0.04 0.05 0.06 0.05 0.04 0.05 0.07 0.06 0.04 0.06 0.07 0.06 0.05 0.05 0.05 0.05 0.05 0.04 0.04
0.03 0.03 0.02 0.03 0.03 0.02 0.01 0.01 0.01 0.02 0.01 0.01 0.02 0.02 0.01 0.02 0.02 0.03 0.03 0.03 0.02 0.02 0.01 0.02 0.01 0.02 0.03 0.05 0.05 0.05 0.05 0.06 0.05 0.04 0.04 0.04 0.05 0.04 0.04 0.05 0.03 0.02 0.02 0.03
0.03 0.02 0.02 0.02 0.03 0.03 0.02 0.02 0.01 0.01 0.01 0.03 0.04 0.02 0.01 0.02 0.03 0.02 0.02 0.02 0.01 0.01 0.01 0.01 0.01 0.02 0.03 0.03 0.05 0.05 0.05 0.05 0.05 0.04 0.03 0.03 0.03 0.04 0.04 0.05 0.04 0.03 0.02 0.01
0.03 0.03 0.02 0.03 0.04 0.04 0.03 0.02 0.01 0.01 0.02 0.03 0.05 0.04 0.03 0.03 0.02 0.01 0.01 0.01 0.01 0.01 0.01 0.01 0.02 0.02 0.02 0.03 0.04 0.05 0.05 0.06 0.06 0.05 0.03 0.03 0.03 0.03 0.03 0.03 0.04 0.03 0.02 0.02
0.03 0.02 0.02 0.03 0.03 0.04 0.04 0.03 0.02 0.03 0.02 0.02 0.04 0.04 0.03 0.03 0.02 0.02 0.01 0.01 0.02 0.02 0.02 0.02 0.02 0.02 0.02 0.02 0.03 0.04 0.04 0.04 0.04 0.04 0.03 0.03 0.02 0.02 0.01 0.02 0.03 0.02 0.02 0.02
0.02 0.02 0.02 0.02 0.03 0.03 0.04 0.04 0.04 0.04 0.04 0.04 0.03 0.02 0.02 0.02 0.02 0.02 0.02 0.02 0.02 0.02 0.02 0.02 0.02 0.01 0.01 0.02 0.02 0.03 0.04 0.04 0.04 0.03 0.03 0.03 0.02 0.02 0.01 0.02 0.02 0.02 0.02 0.01
0.02 0.02 0.02 0.02 0.03 0.03 0.04 0.04 0.04 0.04 0.04 0.03 0.03 0.03 0.02 0.03 0.03 0.02 0.02 0.02 0.02 0.02 0.02 0.01 0.01 0.01 0.01 0.02 0.02 0.03 0.04 0.04 0.04 0.03 0.02 0.03 0.03 0.02 0.01 0.02 0.02 0.02 0.01 0.01
0.01 0.02 0.02 0.02 0.02 0.03 0.02 0.02 0.02 0.03 0.03 0.04 0.04 0.04 0.04 0.04 0.04 0.03 0.02 0.02 0.02 0.02 0.01 0.01 0.01 0.01 0.02 0.02 0.04 0.04 0.05 0.06 0.06 0.04 0.04 0.04 0.03 0.02 0.02 0.02 0.02 0.02 0.02 0.02
0.02 0.02 0.02 0.02 0.02 0.03 0.03 0.03 0.04 0.04 0.05 0.05 0.05 0.05 0.04 0.03 0.03 0.03 0.03 0.02 0.02 0.02 0.01 0.01 0.01 0.02 0.02 0.02 0.05 0.07 0.07 0.08 0.09 0.08 0.06 0.05 0.05 0.04 0.04 0.04 0.03 0.03 0.03 0.02
0.02 0.01 0.01 0.02 0.02 0.02 0.03 0.03 0.04 0.04 0.05 0.05 0.04 0.04 0.04 0.03 0.03 0.03 0.03 0.03 0.03 0.03 0.02 0.01 0.01 0.02 0.02 0.03 0.05 0.07 0.09 0.08 0.09 0.10 0.10 0.07 0.06 0.06 0.06 0.05 0.05 0.05 0.04 0.03
0.01 0.01 0.02 0.03 0.03 0.02 0.03 0.04 0.03 0.04 0.05 0.05 0.05 0.05 0.04 0.04 0.04 0.04 0.04 0.04 0.04 0.03 0.02 0.02 0.02 0.03 0.03 0.04 0.05 0.07 0.08 0.08 0.08 0.09 0.12 0.12 0.09 0.08 0.08 0.07 0.07 0.07 0.06 0.05
0.03 0.02 0.02 0.03 0.03 0.03 0.03 0.04 0.04 0.04 0.04 0.04 0.05 0.05 0.04 0.04 0.03 0.03 0.04 0.03 0.02 0.02 0.02 0.02 0.02 0.02 0.03 0.04 0.06 0.08 0.07 0.07 0.08 0.08 0.09 0.10 0.11 0.11 0.10 0.08 0.08 0.07 0.07 0.06
0.03 0.03 0.03 0.04 0.04 0.04 0.03 0.03 0.03 0.03 0.03 0.04 0.04 0.04 0.04 0.04 0.03 0.03 0.03 0.02 0.01 0.01 0.02 0.02 0.02 0.03 0.03 0.03 0.04 0.07 0.07 0.06 0.07 0.07 0.07 0.08 0.09 0.10 0.10 0.09 0.09 0.08 0.07 0.06
0.03 0.03 0.04 0.04 0.04 0.04 0.04 0.03 0.03 0.04 0.05 0.05 0.05 0.04 0.04 0.03 0.03 0.02 0.03 0.02 0.02 0.02 0.02 0.01 0.02 0.02 0.02 0.02 0.03 0.05 0.07 0.07 0.06 0.05 0.05 0.06 0.07 0.09 0.09 0.09 0.09 0.08 0.07 0.06
0.02 0.02 0.04 0.04 0.04 0.04 0.04 0.04 0.04 0.05 0.04 0.05 0.06 0.05 0.04 0.03 0.02 0.02 0.02 0.01 0.02 0.02 0.02 0.02 0.02 0.02 0.02 0.02 0.02 0.04 0.05 0.06 0.06 0.05 0.05 0.05 0.05 0.07 0.07 0.08 0.08 0.08 0.07 0.06
0.03 0.04 0.05 0.05 0.04 0.04 0.04 0.03 0.03 0.04 0.04 0.04 0.04 0.03 0.02 0.01 0.01 0.02 0.02 0.02 0.02 0.02 0.01 0.02 0.02 0.02 0.02 0.02 0.03 0.03 0.04 0.05 0.06 0.06 0.06 0.06 0.06 0.06 0.06 0.07 0.07 0.06 0.06 0.05
0.03 0.04 0.05 0.06 0.05 0.04 0.03 0.03 0.04 0.05 0.03 0.03 0.03 0.02 0.02 0.02 0.02 0.02 0.03 0.03 0.02 0.02 0.01 0.01 0.01 0.01 0.01 0.02 0.02 0.02 0.03 0.03 0.04 0.05 0.06 0.06 0.06 0.06 0.06 0.06 0.06 0.06 0.05 0.05
MSLP
994.10 994.53 995.20 996.03 996.89 997.68 998.31 998.70 998.85 998.78 998.56 998.28 998.06 997.99 998.13 998.52 999.14 999.95 1000.88 1001.85 1002.78 1003.61 1004.31 1004.87 1005.32 1005.68 1005.99 1006.30 1006.61 1006.95 1007.31 1007.66 1007.99 1008.29 1008.53 1008.72 1008.86 1008.96 1009.05 1009.14 1009.25 1009.37 1009.51 1009.66
995.00 995.43 996.04 996.76 997.50 998.14 998.62 998.90 998.95 998.83 998.59 998.33 998.15 998.12 998.31 998.73 999.38 1000.20 1001.13 1002.08 1003.00 1003.82 1004.51 1005.07 1005.52 1005.89 1006.22 1006.53 1006.86 1007.20 1007.55 1007.89 1008.20 1008.46 1008.65 1008.78 1008.84 1008.87 1008.88 1008.89 1008.92 1008.99 1009.09 1009.21
996.35 996.80 997.39 998.03 998.64 999.15 999.50 999.64 999.60 999.40 999.13 998.86 998.68 998.67 998.88 999.31 999.95 1000.76 1001.65 1002.57 1003.44 1004.22 1004.87 1005.40 1005.83 1006.18 1006.48 1006.77 1007.08 1007.39 1007.71 1008.01 1008.27 1008.48 1008.62 1008.68 1008.68 1008.65 1008.59 1008.54 1008.52 1008.54 1008.61 1008.73
998.09 998.58 999.15 999.72 1000.23 1000.62 1000.83 1000.85 1000.71 1000.45 1000.13 999.85 999.67 999.67 999.88 1000.30 1000.92 1001.69 1002.53 1003.39 1004.19 1004.89 1005.48 1005.94 1006.30 1006.59 1006.83 1007.07 1007.31 1007.55 1007.80 1008.04 1008.24 1008.38 1008.46 1008.47 1008.42 1008.33 1008.23 1008.14 1008.08 1008.08 1008.13 1008.24
1000.08 1000.61 1001.15 1001.65 1002.05 1002.31 1002.40 1002.32 1002.10 1001.79 1001.45 1001.16 1001.00 1001.01 1001.22 1001.64 1002.23 1002.95 1003.73 1004.50 1005.22 1005.83 1006.31 1006.68 1006.95 1007.14 1007.30 1007.44 1007.58 1007.74 1007.90 1008.05 1008.17 1008.24 1008.26 1008.22 1008.12 1008.00 1007.87 1007.76 1007.69 1007.68 1007.73 1007.84
1002.17 1002.68 1003.16 1003.57 1003.85 1003.99 1003.97 1003.81 1003.53 1003.19 1002.86 1002.60 1002.47 1002.52 1002.75 1003.17 1003.75 1004.42 1005.13 1005.81 1006.43 1006.93 1007.31 1007.57 1007.73 1007.82 1007.86 1007.90 1007.94 1007.99 1008.05 1008.11 1008.15 1008.15 1008.11 1008.02 1007.89 1007.75 1007.61 1007.49 1007.42 1007.42 1007.48 1007.60
1004.17 1004.62 1004.99 1005.27 1005.42 1005.43 1005.31 1005.08 1004.78 1004.45 1004.16 1003.95 1003.90 1004.00 1004.29 1004.73 1005.29 1005.92 1006.57 1007.18 1007.70 1008.10 1008.38 1008.53 1008.59 1008.57 1008.51 1008.44 1008.39 1008.34 1008.31 1008.28 1008.23 1008.17 1008.07 1007.95 1007.80 1007.64 1007.50 1007.40 1007.34 1007.35 1007.43 1007.57
1005.97 1006.28 1006.51 1006.62 1006.62 1006.50 1006.29 1006.01 1005.71 1005.42 1005.20 1005.09 1005.12 1005.32 1005.66 1006.14 1006.71 1007.32 1007.92 1008.47 1008.90 1009.22 1009.41 1009.47 1009.45 1009.35 1009.21 1009.07 1008.93 1008.80 1008.69 1008.59 1008.48 1008.36 1008.22 1008.06 1007.90 1007.74 1007.60 1007.51 1007.47 1007.51 1007.61 1007.77
1007.49 1007.63 1007.66 1007.59 1007.43 1007.19 1006.90 1006.59 1006.31 1006.08 1005.95 1005.95 1006.10 1006.39 1006.81 1007.33 1007.92 1008.52 1009.08 1009.57 1009.95 1010.20 1010.33 1010.34 1010.26 1010.12 1009.94 1009.74 1009.55 1009.38 1009.21 1009.06 1008.90 1008.73 1008.55 1008.37 1008.19 1008.03 1007.90 1007.83 1007.81 1007.86 1007.98 1008.15
1008.74 1008.68 1008.51 1008.25 1007.93 1007.58 1007.23 1006.92 1006.67 1006.52 1006.50 1006.61 1006.86 1007.24 1007.74 1008.30 1008.90 1009.49 1010.03 1010.48 1010.81 1011.03 1011.12 1011.11 1011.02 1010.86 1010.67 1010.46 1010.25 1010.05 1009.86 1009.66 1009.47 1009.27 1009.06 1008.86 1008.67 1008.50 1008.37 1008.30 1008.29 1008.35 1008.48 1008.65
1009.78 1009.52 1009.16 1008.73 1008.29 1007.85 1007.47 1007.17 1006.97 1006.90 1006.97 1007.18 1007.53 1007.99 1008.53 1009.11 1009.71 1010.29 1010.79 1011.21 1011.52 1011.72 1011.80 1011.79 1011.71 1011.57 1011.39 1011.20 1011.00 1010.79 1010.59 1010.38 1010.16 1009.93 1009.70 1009.47 1009.27 1009.09 1008.95 1008.88 1008.87 1008.92 1009.04 1009.20
1010.68 1010.25 1009.74 1009.19 1008.67 1008.19 1007.80 1007.53 1007.40 1007.40 1007.56 1007.84 1008.25 1008.75 1009.31 1009.89 1010.47 1011.01 1011.48 1011.87 1012.15 1012.33 1012.42 1012.43 1012.37 1012.26 1012.12 1011.95 1011.77 1011.58 1011.37 1011.15 1010.92 1010.67 1010.42 1010.18 1009.95 1009.75 1009.61 1009.52 1009.49 1009.52 1009.61 1009.73
1011.50 1010.96 1010.36 1009.75 1009.19 1008.72 1008.37 1008.15 1008.08 1008.15 1008.37 1008.70 1009.14 1009.64 1010.18 1010.73 1011.27 1011.75 1012.17 1012.52 1012.77 1012.95 1013.04 1013.06 1013.03 1012.96 1012.85 1012.71 1012.55 1012.37 1012.17 1011.95 1011.71 1011.45 1011.19 1010.93 1010.69 1010.48 1010.31 1010.20 1010.14 1010.13 1010.17 1010.23
1012.27 1011.68 1011.05 1010.45 1009.92 1009.50 1009.20 1009.05 1009.05 1009.19 1009.44 1009.79 1010.23 1010.70 1011.20 1011.69 1012.16 1012.58 1012.94 1013.23 1013.45 1013.60 1013.69 1013.72 1013.71 1013.66 1013.57 1013.46 1013.32 1013.15 1012.96 1012.74 1012.51 1012.25 1011.99 1011.73 1011.48 1011.27 1011.08 1010.94 1010.84 1010.77 1010.74 1010.71
1012.97 1012.39 1011.81 1011.27 1010.81 1010.47 1010.27 1010.20 1010.26 1010.44 1010.72 1011.08 1011.48 1011.91 1012.34 1012.76 1013.15 1013.49 1013.78 1014.01 1014.19 1014.31 1014.39 1014.42 1014.41 1014.37 1014.29 1014.19 1014.06 1013.91 1013.73 1013.53 1013.31 1013.07 1012.83 1012.59 1012.35 1012.13 1011.94 1011.77 1011.62 1011.49 1011.37 1011.23
1013.58 1013.06 1012.56 1012.12 1011.78 1011.55 1011.44 1011.46 1011.59 1011.80 1012.09 1012.43 1012.80 1013.17 1013.53 1013.87 1014.17 1014.44 1014.66 1014.84 1014.98 1015.07 1015.12 1015.13 1015.11 1015.07 1014.99 1014.90 1014.78 1014.64 1014.48 1014.31 1014.12 1013.93 1013.72 1013.51 1013.31 1013.10 1012.90 1012.71 1012.51 1012.31 1012.09 1011.84
1014.08 1013.65 1013.26 1012.94 1012.72 1012.61 1012.60 1012.70 1012.87 1013.12 1013.41 1013.73 1014.05 1014.36 1014.66 1014.93 1015.16 1015.36 1015.53 1015.66 1015.75 1015.81 1015.84 1015.83 1015.80 1015.74 1015.66 1015.57 1015.46 1015.34 1015.21 1015.08 1014.94 1014.80 1014.66 1014.50 1014.34 1014.16 1013.97 1013.75 1013.51 1013.23 1012.91 1012.55
1014.48 1014.15 1013.87 1013.67 1013.56 1013.55 1013.63 1013.79 1014.01 1014.27 1014.55 1014.84 1015.12 1015.39 1015.63 1015.85 1016.03 1016.19 1016.32 1016.41 1016.48 1016.51 1016.51 1016.49 1016.44 1016.37 1016.28 1016.19 1016.10 1016.00 1015.92 1015.84 1015.76 1015.69 1015.62 1015.53 1015.42 1015.27 1015.09 1014.86 1014.57 1014.22 1013.80 1013.32
1014.81 1014.57 1014.39 1014.29 1014.27 1014.34 1014.48 1014.67 1014.91 1015.17 1015.44 1015.70 1015.95 1016.18 1016.39 1016.57 1016.72 1016.86 1016.96 1017.04 1017.10 1017.11 1017.11 1017.07 1017.01 1016.93 1016.84 1016.76 1016.68 1016.62 1016.58 1016.56 1016.55 1016.55 1016.55 1016.52 1016.46 1016.35 1016.18 1015.93 1015.60 1015.18 1014.67 1014.09
1015.15 1014.98 1014.87 1014.83 1014.87 1014.98 1015.15 1015.35 1015.59 1015.83 1016.08 1016.31 1016.53 1016.73 1016.91 1017.08 1017.23 1017.35 1017.46 1017.54 1017.59 1017.61 1017.60 1017.56 1017.50 1017.42 1017.34 1017.26 1017.21 1017.18 1017.18 1017.21 1017.26 1017.33 1017.38 1017.41 1017.39 1017.31 1017.14 1016.87 1016.50 1016.02 1015.44 1014.78
1015.53 1015.40 1015.33 1015.33 1015.40 1015.52 1015.68 1015.88 1016.09 1016.30 1016.51 1016.72 1016.91 1017.09 1017.25 1017.41 1017.56 1017.69 1017.81 1017.90 1017.96 1017.99 1017.99 1017.96 1017.90 1017.83 1017.75 1017.70 1017.66 1017.66 1017.70 1017.77 1017.87 1017.97 1018.07 1018.14 1018.14 1018.07 1017.89 1017.60 1017.20 1016.68 1016.05 1015.32
1015.98 1015.87 1015.82 1015.83 1015.89 1016.00 1016.14 1016.30 1016.47 1016.65 1016.82 1016.98 1017.14 1017.30 1017.45 1017.61 1017.76 1017.91 1018.04 1018.15 1018.23 1018.27 1018.28 1018.26 1018.21 1018.15 1018.09 1018.05 1018.03 1018.05 1018.11 1018.20 1018.32 1018.46 1018.57 1018.65 1018.66 1018.59 1018.40 1018.09 1017.67 1017.12 1016.46 1015.71
1016.47 1016.37 1016.32 1016.33 1016.37 1016.45 1016.56 1016.67 1016.80 1016.92 1017.04 1017.17 1017.29 1017.43 1017.57 1017.72 1017.88 1018.03 1018.18 1018.30 1018.40 1018.46 1018.48 1018.48 1018.44 1018.39 1018.35 1018.31 1018.30 1018.33 1018.40 1018.50 1018.63 1018.77 1018.88 1018.96 1018.96 1018.87 1018.68 1018.36 1017.93 1017.38 1016.72 1015.99
1016.93 1016.84 1016.80 1016.79 1016.82 1016.87 1016.93 1017.01 1017.08 1017.15 1017.23 1017.31 1017.41 1017.52 1017.64 1017.79 1017.94 1018.10 1018.25 1018.38 1018.49 1018.57 1018.61 1018.61 1018.59 1018.55 1018.51 1018.48 1018.48 1018.51 1018.57 1018.67 1018.79 1018.92 1019.02 1019.09 1019.08 1018.99 1018.79 1018.48 1018.06 1017.54 1016.92 1016.23
1017.30 1017.22 1017.18 1017.17 1017.19 1017.22 1017.26 1017.29 1017.33 1017.36 1017.40 1017.45 1017.51 1017.60 1017.70 1017.83 1017.97 1018.13 1018.28 1018.42 1018.53 1018.61 1018.66 1018.67 1018.66 1018.62 1018.59 1018.56 1018.56 1018.58 1018.64 1018.73 1018.83 1018.95 1019.04 1019.09 1019.09 1019.00 1018.82 1018.54 1018.16 1017.69 1017.13 1016.52
1017.51 1017.46 1017.44 1017.44 1017.46 1017.49 1017.51 1017.53 1017.54 1017.55 1017.56 1017.59 1017.63 1017.69 1017.77 1017.88 1018.01 1018.15 1018.29 1018.42 1018.53 1018.61 1018.66 1018.67 1018.66 1018.63 1018.59 1018.56 1018.55 1018.57 1018.62 1018.69 1018.79 1018.89 1018.98 1019.03 1019.04 1018.98 1018.83 1018.61 1018.29 1017.90 1017.43 1016.92
1017.55 1017.54 1017.55 1017.58 1017.62 1017.66 1017.69 1017.71 1017.71 1017.72 1017.72 1017.73 1017.75 1017.80 1017.87 1017.96 1018.07 1018.19 1018.32 1018.43 1018.52 1018.59 1018.63 1018.63 1018.61 1018.58 1018.53 1018.50 1018.48 1018.49 1018.53 1018.59 1018.68 1018.78 1018.88 1018.95 1018.98 1018.96 1018.88 1018.72 1018.48 1018.19 1017.82 1017.41
Thickness
5739 5749 5749 5748 5749 5753 5749 5749 5743 5742 5740 5740 5746 5748 5747 5747 5744 5740 5737 5735 5733 5730 5728 5726 5724 5722 5721 5719 5717 5715 5712 5709 5707 5706 5705 5704 5702 5701 5701 5700 5700 5699 5699 5698
5722 5737 5742 5740 5744 5747 5746 5748 5744 5742 5737 5746 5744 5742 5738 5736 5734 5729 5727 5726 5723 5721 5718 5716 5714 5713 5712 5710 5709 5708 5705 5703 5702 5701 5699 5698 5697 5696 5695 5694 5694 5693 5692 5692
5704 5723 5726 5718 5731 5736 5736 5741 5738 5730 5731 5735 5730 5727 5726 5726 5724 5721 5720 5717 5713 5710 5707 5706 5705 5704 5703 5702 5701 5699 5697 5696 5695 5694 5692 5691 5691 5689 5688 5687 5686 5686 5686 5686
5696 5700 5686 5711 5735 5734 5727 5727 5733 5732 5730 5725 5722 5720 5720 5718 5715 5713 5711 5708 5704 5700 5698 5697 5697 5696 5695 5694 5692 5690 5689 5689 5688 5687 5685 5684 5683 5682 5681 5680 5679 5679 5679 5680
5684 5683 5689 5707 5718 5720 5714 5710 5717 5716 5716 5713 5715 5710 5705 5708 5707 5705 5703 5700 5696 5693 5690 5688 5687 5686 5686 5684 5683 5681 5681 5680 5680 5679 5678 5677 5675 5674 5674 5673 5672 5673 5673 5673
5676 5670 5670 5688 5709 5718 5709 5691 5702 5703 5700 5699 5700 5688 5685 5694 5696 5696 5694 5691 5688 5685 5682 5679 5678 5678 5676 5674 5673 5672 5673 5673 5673 5672 5671 5670 5669 5668 5668 5667 5667 5667 5667 5668
5666 5663 5669 5685 5700 5703 5679 5674 5688 5691 5689 5689 5685 5681 5682 5686 5685 5684 5682 5681 5679 5676 5672 5670 5670 5669 5666 5665 5664 5665 5666 5666 5665 5664 5664 5663 5663 5662 5661 5660 5660 5660 5660 5661
5659 5654 5655 5676 5682 5671 5666 5676 5679 5679 5679 5677 5676 5674 5673 5673 5672 5671 5670 5669 5668 5665 5663 5662 5661 5659 5657 5656 5658 5659 5658 5658 5658 5658 5658 5658 5656 5655 5655 5654 5654 5653 5653 5654
5653 5650 5657 5665 5663 5664 5667 5665 5668 5668 5668 5667 5664 5663 5661 5660 5660 5660 5659 5658 5657 5655 5654 5653 5653 5651 5648 5649 5651 5651 5651 5651 5651 5651 5651 5651 5649 5648 5647 5647 5647 5647 5647 5647
5649 5649 5651 5654 5656 5656 5657 5656 5659 5660 5659 5657 5654 5653 5652 5650 5650 5649 5648 5647 5647 5645 5644 5644 5644 5643 5642 5642 5642 5642 5642 5642 5643 5643 5643 5643 5643 5643 5641 5640 5640 5640 5641 5642
5638 5639 5641 5643 5643 5644 5646 5648 5649 5650 5649 5647 5645 5643 5641 5641 5640 5639 5639 5638 5637 5636 5635 5635 5636 5635 5635 5635 5634 5634 5634 5634 5635 5636 5636 5636 5636 5636 5635 5635 5634 5633 5635 5636
5625 5630 5628 5628 5633 5636 5635 5634 5635 5635 5636 5636 5635 5632 5631 5630 5630 5629 5629 5629 5628 5628 5628 5628 5628 5628 5628 5628 5627 5625 5625 5627 5628 5628 5629 5629 5629 5629 5628 5629 5628 5628 5628 5629
5625 5627 5626 5625 5626 5626 5625 5625 5625 5625 5624 5623 5623 5622 5621 5620 5620 5620 5620 5620 5620 5620 5620 5620 5620 5620 5620 5620 5619 5618 5618 5619 5620 5621 5622 5622 5622 5622 5622 5621 5621 5621 5623 5623
5619 5618 5614 5615 5615 5616 5616 5615 5615 5614 5614 5613 5612 5612 5611 5610 5610 5610 5610 5611 5611 5612 5612 5612 5612 5612 5613 5613 5612 5611 5611 5612 5613 5614 5615 5615 5615 5616 5617 5617 5617 5618 5618 5617
5608 5608 5606 5606 5606 5606 5606 5605 5604 5603 5603 5602 5602 5601 5600 5600 5599 5600 5601 5602 5602 5602 5603 5603 5603 5604 5606 5606 5605 5604 5605 5606 5607 5608 5608 5609 5610 5611 5613 5612 5613 5614 5614 5612
5599 5599 5598 5596 5595 5595 5595 5594 5593 5593 5593 5593 5592 5591 5591 5591 5591 5591 5592 5593 5592 5592 5593 5594 5594 5596 5597 5598 5597 5597 5598 5598 5599 5601 5602 5603 5604 5606 5607 5607 5606 5607 5608 5607
5587 5586 5586 5585 5585 5585 5585 5586 5585 5585 5585 5584 5583 5583 5582 5582 5581 5581 5582 5584 5584 5584 5585 5586 5586 5588 5589 5589 5589 5590 5592 5593 5592 5594 5595 5596 5598 5599 5600 5600 5599 5600 5601 5600
5582 5581 5580 5579 5578 5577 5577 5578 5578 5577 5576 5577 5576 5575 5574 5573 5572 5573 5575 5576 5576 5577 5578 5578 5579 5579 5581 5582 5581 5583 5585 5586 5586 5586 5587 5588 5589 5591 5592 5591 5591 5593 5594 5593
5574 5573 5572 5572 5572 5571 5571 5570 5570 5569 5569 5569 5567 5566 5566 5566 5566 5567 5568 5569 5569 5569 5570 5572 5570 5572 5573 5574 5573 5575 5577 5578 5579 5579 5580 5580 5582 5583 5584 5585 5585 5586 5587 5586
5566 5565 5565 5565 5564 5564 5563 5563 5563 5562 5562 5561 5559 5558 5558 5559 5560 5560 5561 5561 5562 5563 5564 5564 5564 5565 5566 5567 5565 5568 5570 5571 5571 5572 5573 5574 5574 5574 5575 5576 5576 5577 5577 5576
5558 5557 5557 5556 5555 5556 5556 5556 5555 5555 5554 5553 5552 5551 5551 5551 5553 5553 5553 5554 5555 5556 5557 5557 5558 5558 5559 5558 5558 5562 5563 5564 5564 5565 5567 5568 5568 5568 5568 5568 5567 5567 5567 5568
5549 5549 5548 5548 5547 5548 5549 5550 5549 5549 5548 5547 5546 5545 5545 5545 5545 5546 5546 5546 5548 5547 5549 5551 5552 5551 5551 5550 5554 5555 5557 5557 5558 5559 5560 5560 5560 5560 5560 5560 5560 5559 5558 5558
5542 5541 5540 5540 5541 5542 5543 5544 5545 5544 5543 5541 5540 5540 5539 5538 5538 5539 5539 5541 5542 5541 5543 5544 5543 5542 5542 5545 5548 5548 5549 5549 5550 5551 5552 5552 5552 5551 5551 5551 5551 5551 5550 5549
5536 5535 5535 5536 5537 5537 5537 5539 5540 5539 5538 5537 5536 5535 5534 5534 5534 5534 5534 5534 5535 5535 5537 5537 5535 5535 5535 5539 5540 5540 5541 5541 5542 5543 5543 5544 5544 5543 5542 5542 5542 5542 5541 5541
5531 5531 5531 5531 5531 5532 5533 5534 5534 5533 5532 5532 5532 5532 5531 5530 5529 5529 5529 5530 5529 5529 5532 5531 5529 5529 5531 5533 5533 5533 5534 5535 5535 5535 5534 5534 5534 5534 5534 5534 5534 5533 5533 5532
5526 5526 5526 5525 5527 5528 5529 5529 5529 5529 5527 5526 5525 5525 5526 5526 5526 5525 5525 5526 5526 5525 5527 5527 5525 5524 5526 5526 5526 5527 5527 5528 5528 5528 5528 5528 5527 5527 5527 5526 5525 5525 5525 5525
5522 5522 5522 5523 5524 5524 5524 5524 5524 5524 5523 5521 5520 5520 5520 5520 5520 5520 5520 5521 5521 5522 5522 5522 5522 5521 5520 5520 5520 5520 5520 5520 5520 5521 5521 5521 5520 5520 5520 5519 5519 5519 5518 5518